Location: Brachbach
(49.1847°N, 9.7240°E)
Time: 17:56:21
(UTC+00:00)

ESTCUBE 1 - Visible Passes

Search period start: 07 March 2026 00:00
Search period end: 17 March 2026 00:00
Orbit: 620 x 632 km, 97.7° (Epoch: 7 March)

Date Brightness Start Highest point End Pass type
(mag) Time Alt. Az. Time Alt. Az. Time Alt. Az.
7 Mar ? 19:24:44 35° NE 19:24:44 35° NE 19:27:56 10° N visible
7 Mar ? 21:02:00 19° WNW 21:02:00 19° WNW 21:03:50 10° NW visible
8 Mar ? 19:43:53 46° NNE 19:43:53 46° NNE 19:47:11 10° N visible
8 Mar ? 21:21:10 14° WNW 21:21:10 14° WNW 21:22:18 10° NW visible
9 Mar ? 18:25:47 13° ENE 18:26:21 13° ENE 18:28:26 10° NNE visible
9 Mar ? 20:03:04 50° NNW 20:03:04 50° NNW 20:06:20 10° NNW visible
10 Mar ? 18:44:57 19° ENE 18:45:12 19° ENE 18:48:16 10° NNE visible
10 Mar ? 20:22:14 42° NW 20:22:14 42° NW 20:25:22 10° NNW visible
11 Mar ? 19:04:07 27° ENE 19:04:07 27° ENE 19:07:48 10° N visible
11 Mar ? 20:41:23 31° WNW 20:41:23 31° WNW 20:44:18 10° NNW visible
12 Mar ? 19:23:16 39° ENE 19:23:16 39° ENE 19:27:08 10° N visible
12 Mar ? 21:00:33 22° WNW 21:00:33 22° WNW 21:03:03 10° NW visible
13 Mar ? 19:42:25 57° NE 19:42:25 57° NE 19:46:23 10° N visible
13 Mar ? 21:19:42 15° WNW 21:19:42 15° WNW 21:21:31 10° NW visible
14 Mar ? 18:24:18 12° ENE 18:25:31 13° ENE 18:27:35 10° NNE visible
14 Mar ? 20:01:35 71° NNW 20:01:35 71° NNW 20:05:30 10° NNW visible
14 Mar ? 21:38:52 10° WNW 21:38:52 10° WNW 21:39:06 10° WNW visible
15 Mar ? 18:43:27 18° ENE 18:44:21 19° ENE 18:47:25 10° NNE visible
15 Mar ? 20:20:44 53° WNW 20:20:44 53° WNW 20:24:32 10° NNW visible
16 Mar ? 19:02:36 26° E 19:03:14 27° ENE 19:06:55 10° N visible
16 Mar ? 20:39:53 36° W 20:39:53 36° W 20:43:26 10° NNW visible
